軌道要素
Epoch 2017 June 16.0 TT = JDT 2457920.5
T 2017 May 31.58035 TT Rudenko
q 5.9152836 (2000.0) P Q
z -0.0008426 Peri. 333.66438 -0.77474507 -0.14230919
+/-0.0000007 Node 220.75857 -0.26824035 -0.80833284
e 1.0049841 Incl. 70.66503 -0.57255322 +0.57126712
From 518 observations 2013 Dec. 14-2020 June 20, mean residual 0".8.
|